Flag for Switzerland Weather past 2 weeks in Solothurn, Solothurn, Switzerland

Now
56 °F

Cool.


Feels Like: 56 °F
Forecast: 51 / 69 °F
Wind: 1 mph from West

Location: Grenchen

Current Time: May 29, 2015 at 10:32:38 AM

Latest Report: May 29, 2015 at 9:00 AM


Visibility: N/A

Pressure: 29.97 "Hg

Humidity: 73%

Dew point: 48 °F

Location of SolothurnLocation

Historic Weather in Solothurn — Graph

°F

Solothurn temperature yesterday

Maximum temperature yesterday: 72 °F (at 6:00 PM)
Minimum temperature yesterday: 39 °F (at 4:00 AM)
Average temperature yesterday: 56 °F

Past Weeks' High & Low Weather Summary

 TemperatureHumidityPressure
High74 °F (May 14, 4:00 PM)100% (May 22, 1:00 AM)30.36 "Hg (May 22, 1:00 AM)
Low38 °F (May 22, 5:00 AM)33% (May 18, 10:00 PM)29.73 "Hg (May 18, 8:00 PM)
Average55 °F73%30.08 "Hg
* Reported May 14 9:00 AM — May 29 9:00 AM, Solothurn, Weather by CustomWeather, © 2015

Note: Actual official high and low records may vary slightly from our data, if they occured in-between our weather recording intervals... More about our weather records

Advertising

Solothurn weather history for previous 24 hours

 ConditionsComfort  
Time TempWeatherWind HumidityBarometerVisibility
9:00 AM
Fri, May 29
56 °FCool.1 mph73%29.97 "HgN/A
8:00 AM53 °FCool.1 mph81%29.99 "HgN/A
7:00 AM51 °FCool.1 mph90%30.00 "HgN/A
6:00 AM49 °FCool.1 mph90%30.01 "HgN/A
5:00 AM49 °FCool.3 mph93%30.02 "HgN/A
4:00 AM46 °FCool.3 mph90%30.05 "HgN/A
3:00 AM48 °FCool.1 mph89%30.05 "HgN/A
2:00 AM49 °FCool.2 mph85%30.06 "HgN/A
1:00 AM53 °FCool.2 mph72%30.05 "HgN/A
12:00 AM59 °FRefreshingly cool.3 mph55%30.03 "HgN/A
10:00 PM
Thu, May 28
64 °FMild.5 mph42%30.00 "HgN/A
9:00 PM67 °FMild.9 mph39%29.97 "HgN/A
8:00 PM69 °FMild.8 mph40%29.97 "HgN/A
7:00 PM71 °FMild.7 mph33%29.96 "HgN/A
6:00 PM72 °FMild.9 mph33%29.96 "HgN/A
5:00 PM72 °FMild.7 mph35%29.98 "HgN/A
4:00 PM71 °FMild.8 mph40%30.00 "HgN/A
3:00 PM70 °FMild.7 mph40%30.02 "HgN/A
2:00 PM68 °FMild.5 mph46%30.04 "HgN/A
1:00 PM64 °FMild.3 mph48%30.07 "HgN/A
12:00 PM62 °FRefreshingly cool.3 mph50%30.09 "HgN/A
11:00 AM58 °FRefreshingly cool.3 mph55%30.13 "HgN/A
10:00 AM54 °FCool.3 mph64%30.14 "HgN/A
Weather by CustomWeather, © 2015

See weather overviewHow to use our weather pages